PHASE 3B (AO-10)

Last updated on Jan. 21, 2021, 6:16 a.m. UTC

1 14129U 83058B   21019.88278163 -.00000084  00000-0  00000-0 0  9990
2 14129  25.7855 179.4221 6066274 302.7829  12.6233  2.05868708254865
UTC
Height (km)
Latitude
Longitude
Inclination
Orbital Period
UTC large
Height (km)
Speed (km/s)
/
Latitude / Longitude
Inclination (degrees)
Orbital Period (minutes)
Azimuth
Elevation
Range (km)
Doppler Factor
iOS Compass Heading
iOS Angle

Next 30 passes for location: Hong Kong

Rise time Rise Azimuth (degrees) Set time Set Azimuth (degrees) Duration Max altitude (degrees)

No matching passes for this satellites